Miscellaneous Local Product
Issued by NWS Hastings, NE

Home | Current Version | Previous Version | Graphics & Text | Print | Product List | Glossary On
Versions: 1 2 3 4 5 6 7 8 9 10 11 12 13 14 15 16 17 18 19 20 21 22 23 24 25 26 27 28 29 30 31 32 33 34 35 36 37 38 39 40 41 42 43 44 45 46 47 48 49 50
420
AXUS43 KGID 240602
MISGRI

GID CWA HOURLY WEATHER ROUNDUP
NATIONAL WEATHER SERVICE HASTINGS NE
100 AM CDT SAT JUN 24 2017

NOTE: "FAIR" INDICATES FEW OR NO CLOUDS BELOW 12,000 FEET WITH NO
SIGNIFICANT WEATHER AND/OR OBSTRUCTIONS TO VISIBILITY.

...SOUTH CENTRAL NEBRASKA...

CITY           SKY/WX    TMP DP  RH WIND       PRES   REMARKS
GRAND ISLAND   CLEAR     57  43  59 N7        30.18R
HASTINGS       CLEAR     56  45  66 SW3       30.19R
KEARNEY        CLEAR     57  43  58 NW6       30.21R
ORD            CLEAR     53  37  54 W6        30.19R
YORK           CLEAR     55  46  71 NW5       30.17R
AURORA         PTCLDY    54  46  73 N6        30.17S
LEXINGTON      CLEAR     49  45  84 NW7       30.22R
HOLDREGE       CLEAR     53  45  75 W3        30.21R
HEBRON         CLEAR     57  50  78 CALM      30.16R

...NEBRASKA PANHANDLE...

CITY           SKY/WX    TMP DP  RH WIND       PRES   REMARKS
CHADRON        CLEAR     45  37  73 SW6       30.27R
ALLIANCE       MOCLDY    48  39  71 VRB5      30.29R
SCOTTSBLUFF    PTCLDY    54  35  48 NE6       30.29R
SIDNEY         PTCLDY    48  34  58 N5        30.30R

...WESTERN AND NORTH CENTRAL NEBRASKA...

CITY           SKY/WX    TMP DP  RH WIND       PRES   REMARKS
VALENTINE      CLEAR     50  31  48 NW8       30.22R
AINSWORTH      CLEAR     50  37  60 W6        30.22R
ONEILL         CLEAR     49  41  74 W5        30.18S
BROKEN BOW     CLEAR     50  40  68 N8        30.21R
IMPERIAL       CLEAR     51  41  68 CALM      30.26R
NORTH PLATTE   CLEAR     50  40  68 CALM      30.24R
MCCOOK         CLEAR     59  44  57 CALM      30.23R

...EASTERN NEBRASKA...

CITY           SKY/WX    TMP DP  RH WIND       PRES   REMARKS
NORFOLK        CLEAR     52  39  61 NW6       30.15R
SO SIOUX CITY  CLEAR     54  42  64 NW7       30.11R
TEKAMAH        CLEAR     57  43  59 NW7       30.12R
COLUMBUS       CLEAR     53  44  71 W5        30.17R
ALBION         CLEAR     47  40  78 NW6       30.18R
OMAHA EPPLEY   CLEAR     60  47  61 CALM      30.12R
OFFUTT AFB     CLEAR     56  49  75 NW9       30.11R
MILLARD        CLEAR     61  50  67 NW5       30.13R
LINCOLN        CLEAR     54  50  86 N3        30.15R
NEBRASKA CITY  CLEAR     61  52  73 NW8       30.12S
BEATRICE       CLEAR     56  51  84 CALM      30.15R
FALLS CITY     CLEAR     59  53  80 NW5       30.10S

...NORTHERN KANSAS...

CITY           SKY/WX    TMP DP  RH WIND       PRES   REMARKS
GOODLAND       CLEAR     55  51  86 W6        30.25S
HILL CITY      CLEAR     58  49  72 NE7       30.22R
NORTON         CLEAR     55  41  58 CALM      30.21S
PHILLIPSBURG   CLEAR     61  46  59 CALM      30.20R
SMITH CENTER   CLEAR     61  46  59 NE6       30.20R
HAYS           CLEAR     61  51  70 E7        30.20R
RUSSELL        CLEAR     62  49  62 NE6       30.18R
CONCORDIA      CLEAR     63  50  62 N3        30.16R
SALINA         CLEAR     66  51  58 CALM      30.16R
TOPEKA         CLEAR     63  58  83 NW5       30.12R



USA.gov is the U.S. government's official web portal to all federal, state and local government web resources and services.